Dover AFB, DE

2:05 AM EST on November 21, 2017 (GMT -0500)
Dover Air Force Base

Weather History for KDOV - December, 2012

Change the Weather History Date:

Tuesday, December 18, 2012

  Actual Average Record
Temperature  
Mean Temperature 50 °F -  
Max Temperature 59 °F 45 °F 71 °F (1984)
Min Temperature 41 °F 27 °F 11 °F (1960)
Degree Days  
Heating Degree Days 14    
Moisture  
Dew Point 50 °F    
Average Humidity 91    
Maximum Humidity 100    
Minimum Humidity 49    
Precipitation  
Precipitation 0.17 in - - ()
Sea Level Pressure  
Sea Level Pressure 29.56 in    
Wind  
Wind Speed 10 mph (SW)    
Max Wind Speed 22 mph    
Max Gust Speed 31 mph    
Visibility 9 miles    
Events Rain , Thunderstorm    
Averages and records for this station are not official NWS values.
T = Trace of Precipitation, MM = Missing Value Source: NWS Daily Summary

Daily Weather History Graph

Daily Weather History Graph

Search for Another Location

Airport or City:

Trip Planner

Search our weather history database for the weather conditions in past years. The results will help you decide how hot, cold, wet, or windy it might be!

Date:

Astronomy

Dec. 18, 2012 Rise Set
Actual Time 7:16 AM EST 4:41 PM EST
Civil Twilight 6:46 AM EST 5:11 PM EST
Nautical Twilight 6:12 AM EST 5:45 PM EST
Astronomical Twilight 5:39 AM EST 6:17 PM EST
Moon 10:57 AM EST (12/18) 11:02 PM EST (12/18)
Length of Visible Light 10h 25m
Length of Day
9h 25m
Waxing Crescent, 34% of the Moon is Illuminated
Dec 18
Waxing Crescent
Dec 20
First Quarter
Dec 28
Full
Jan 4
Last Quarter
Jan 11
New

Hourly Weather History & Observations

Time (EST) Temp. Windchill Dew Point Humidity Pressure Visibility Wind Dir Wind Speed Gust Speed Precip Events Conditions
12:01 AM 51.8 °F - 51.8 °F 100% 29.55 in 2.5 mi SSE 8.1 mph - N/A Rain , Thunderstorm Light Thunderstorms and Rain
12:04 AM 51.8 °F - 51.8 °F 100% 29.55 in 1.8 mi SSE 9.2 mph - N/A Rain , Thunderstorm Heavy Thunderstorms and Rain
12:06 AM 51.8 °F - 51.8 °F 100% 29.55 in 1.8 mi SSE 9.2 mph - N/A Rain , Thunderstorm Thunderstorms and Rain
12:07 AM 51.8 °F - 51.8 °F 100% 29.55 in 1.8 mi SSE 10.4 mph - N/A Rain , Thunderstorm Thunderstorms and Rain
12:09 AM 51.8 °F - 51.8 °F 100% 29.55 in 2.0 mi SSE 10.4 mph - N/A Rain , Thunderstorm Light Thunderstorms and Rain
12:10 AM 51.8 °F - 51.8 °F 100% 29.55 in 2.5 mi SSE 10.4 mph - N/A Rain Light Rain
12:11 AM 51.8 °F - 51.8 °F 100% 29.55 in 3.0 mi SSE 10.4 mph - N/A Rain Light Rain
12:18 AM 51.8 °F - 51.8 °F 100% 29.55 in 5.0 mi SSE 9.2 mph - N/A Rain Light Rain
12:30 AM 53.6 °F - 53.6 °F 100% 29.55 in 8.0 mi South 8.1 mph - N/A   Overcast
12:32 AM 53.6 °F - 53.6 °F 100% 29.54 in 7.0 mi South 9.2 mph - N/A   Light Drizzle
12:39 AM 53.6 °F - 53.6 °F 100% 29.55 in 6.0 mi South 6.9 mph - N/A Rain Light Rain
12:44 AM 53.6 °F - 53.6 °F 100% 29.54 in 6.0 mi South 8.1 mph - N/A   Light Drizzle
12:55 AM 54.1 °F - 54.1 °F 100% 29.53 in 6.0 mi South 10.4 mph - 0.17 in   Light Drizzle
1:02 AM 53.6 °F - 53.6 °F 100% 29.53 in 8.0 mi South 12.7 mph - N/A   Light Drizzle
1:08 AM 53.6 °F - 53.6 °F 100% 29.53 in 9.0 mi South 10.4 mph - N/A   Overcast
1:09 AM 53.6 °F - 53.6 °F 100% 29.53 in 9.0 mi South 10.4 mph - N/A   Overcast
1:32 AM 55.4 °F - 55.4 °F 100% 29.53 in 10.0 mi South 10.4 mph - N/A   Light Drizzle
1:37 AM 55.4 °F - 55.4 °F 100% 29.52 in 9.0 mi South 11.5 mph - N/A   Light Drizzle
1:39 AM 55.4 °F - 55.4 °F 100% 29.52 in 8.0 mi South 10.4 mph - N/A   Light Drizzle
1:41 AM 55.4 °F - 55.4 °F 100% 29.52 in 8.0 mi South 9.2 mph - N/A   Overcast
1:45 AM 55.4 °F - 55.4 °F 100% 29.52 in 8.0 mi South 9.2 mph - N/A   Overcast
1:46 AM 55.4 °F - 55.4 °F 100% 29.52 in 8.0 mi South 9.2 mph - N/A   Overcast
1:55 AM 54.9 °F - 54.9 °F 100% 29.53 in 10.0 mi SSW 9.2 mph - 0.00 in   Overcast
2:02 AM 55.4 °F - 55.4 °F 100% 29.53 in 10.0 mi SSW 9.2 mph - N/A   Overcast
2:08 AM 55.4 °F - 55.4 °F 100% 29.53 in 10.0 mi SSW 8.1 mph - N/A   Overcast
2:24 AM 55.4 °F - 55.4 °F 100% 29.53 in 10.0 mi SSW 11.5 mph - N/A   Overcast
2:55 AM 55.4 °F - 55.4 °F 100% 29.53 in 10.0 mi SW 12.7 mph - N/A   Overcast
3:09 AM 55.4 °F - 55.4 °F 100% 29.53 in 10.0 mi SW 12.7 mph - N/A   Overcast
3:22 AM 55.4 °F - 55.4 °F 100% 29.53 in 10.0 mi SSW 11.5 mph - N/A   Overcast
3:28 AM 55.4 °F - 55.4 °F 100% 29.53 in 10.0 mi SW 11.5 mph - N/A   Overcast
3:55 AM 55.2 °F - 55.2 °F 100% 29.52 in 10.0 mi SW 10.4 mph - N/A   Overcast
4:06 AM 55.4 °F - 55.4 °F 100% 29.52 in 10.0 mi SW 10.4 mph 19.6 mph N/A   Mostly Cloudy
4:10 AM 55.4 °F - 55.4 °F 100% 29.52 in 10.0 mi SW 12.7 mph - N/A   Mostly Cloudy
4:11 AM 55.4 °F - 55.4 °F 100% 29.53 in 10.0 mi SW 12.7 mph - N/A   Scattered Clouds
4:21 AM 55.4 °F - 55.4 °F 100% 29.52 in 10.0 mi SW 10.4 mph - N/A   Partly Cloudy
4:25 AM 55.4 °F - 55.4 °F 100% 29.52 in 10.0 mi SW 10.4 mph - N/A   Partly Cloudy
4:55 AM 54.1 °F - 54.1 °F 100% 29.52 in 10.0 mi SW 10.4 mph - N/A   Partly Cloudy
5:08 AM 53.6 °F - 53.6 °F 100% 29.54 in 10.0 mi SW 10.4 mph - N/A   Mostly Cloudy
5:55 AM 54.5 °F - 54.5 °F 100% 29.54 in 10.0 mi WSW 6.9 mph - N/A   Overcast
6:25 AM 53.6 °F - 53.6 °F 100% 29.55 in 10.0 mi WSW 8.1 mph - N/A   Overcast
6:55 AM 54.0 °F - 53.8 °F 99% 29.56 in 10.0 mi WSW 6.9 mph - N/A   Overcast
7:04 AM 53.6 °F - 53.6 °F 100% 29.56 in 10.0 mi WSW 6.9 mph - N/A   Overcast
7:16 AM 53.6 °F - 53.6 °F 100% 29.57 in 10.0 mi WSW 9.2 mph - N/A   Overcast
7:45 AM 53.6 °F - 53.6 °F 100% 29.57 in 10.0 mi WSW 6.9 mph - N/A   Scattered Clouds
7:53 AM 53.6 °F - 53.6 °F 100% 29.57 in 10.0 mi West 6.9 mph - N/A   Partly Cloudy
7:55 AM 53.1 °F - 53.1 °F 100% 29.57 in 10.0 mi West 5.8 mph - N/A   Scattered Clouds
8:55 AM 53.4 °F - 53.4 °F 100% 29.59 in 10.0 mi WSW 6.9 mph - N/A   Overcast
9:38 AM 53.6 °F - 53.6 °F 100% 29.59 in 10.0 mi SW 8.1 mph - N/A   Overcast
9:55 AM 55.0 °F - 54.7 °F 99% 29.58 in 10.0 mi Variable 5.8 mph - N/A   Overcast
10:55 AM 57.4 °F - 52.9 °F 85% 29.57 in 10.0 mi SW 9.2 mph - N/A   Clear
11:55 AM 59.4 °F - 50.5 °F 73% 29.55 in 10.0 mi SW 12.7 mph - N/A   Clear
12:55 PM 59.5 °F - 42.4 °F 53% 29.54 in 10.0 mi West 17.3 mph 26.5 mph N/A   Scattered Clouds
1:55 PM 57.6 °F - 42.4 °F 57% 29.53 in 10.0 mi West 19.6 mph 26.5 mph N/A   Partly Cloudy
2:55 PM 58.5 °F - 39.4 °F 49% 29.54 in 10.0 mi West 19.6 mph 27.6 mph N/A   Clear
3:55 PM 54.5 °F - 38.1 °F 54% 29.57 in 10.0 mi West 18.4 mph 25.3 mph N/A   Mostly Cloudy
4:55 PM 51.8 °F - 35.4 °F 54% 29.61 in 10.0 mi WNW 19.6 mph 31.1 mph N/A   Clear
5:55 PM 49.3 °F - 33.3 °F 54% 29.64 in 10.0 mi West 18.4 mph 26.5 mph N/A   Clear
6:55 PM 47.7 °F - 33.1 °F 57% 29.67 in 10.0 mi West 18.4 mph 27.6 mph N/A   Clear
7:55 PM 46.4 °F 40.1 °F 33.3 °F 60% 29.70 in 10.0 mi West 15.0 mph 26.5 mph N/A   Clear
8:55 PM 45.5 °F 37.3 °F 32.7 °F 61% 29.72 in 10.0 mi West 21.9 mph 28.8 mph N/A   Clear
9:55 PM 44.2 °F 36.4 °F 30.9 °F 60% 29.74 in 10.0 mi West 18.4 mph 24.2 mph N/A   Clear
10:55 PM 42.8 °F 37.0 °F 30.7 °F 62% 29.76 in 10.0 mi West 10.4 mph - N/A   Clear
11:55 PM 41.0 °F 35.2 °F 30.6 °F 66% 29.78 in 10.0 mi West 9.2 mph - N/A   Clear